Showing default

COSMOS 1911, 18790

Orbit data source: Space-Track

COSMOS 1911, 18790 is a payload satellite owned by UNKS (CIS) in LEO that was launched on Fri, 15 Jan 1988 UTC via a TSIKLON-3 launch vehicle from the Plesetsk Missile And Space Complex (PKMTR). Payload-class satellites include a variety of spacecraft equipped with specific instruments for various scientific and technological missions. These include communications satellites like Starlink; space stations such as the ISS; scientific satellites like the Hubble; Earth observation satellites from companies like Planet Labs, Umbra, and HawkEye 360; GPS; miniature CubeSats for education and research; and military/defense satellites.

Loading next visibility...
Identifier
18790, 1988-002C
Orbit
LEO
Country
Flag of CISCIS
Related business
Manufacturer
NPO PM
Mission
Defense Communications
Bus & Motor
STRELA-3, Unknown motor
Mass
225 kg wet, 225 kg dry
Launch date (UTC)
1988-01-15 (38 years ago)
Launch vehicle
TSIKLON-3
Launch site
Plesetsk Missile And Space Complex (PKMTR)
Object type
Payload
Rocket body
Debris
Shape & HBR
Cyl, 0.8 m
Radar Cross Section
1.257 m², Large (>1 m²)

Expand to show TLE details & history
Last TLE update: 8 hours ago

TLE from 8 hours ago
0 COSMOS 1911
1 18790U 88002C   26036.75938183  .00000045  00000-0  18594-3 0  9993
2 18790  82.6133 332.3851 0008478  72.5848 350.9999 12.64380517756342
Epoch: 2026-02-05T18:13Z
TLE epoch observation values (Epoch: 2026-02-05T18:13:30.590Z)
Latitude
62.71318°
Longitude
-62.41741°
Altitude
1,409.129 km
Speed
7.164 km/s
True Right ascension
23h 07m 28s
True Declination
62° 35' 04"
Sunlit
Object was in daylight at epoch
Visualization orbit readout
Latitude
Unknown
Longitude
Unknown
Altitude
Unknown
Speed
Unknown
Apparent Right ascension
Unknown
Apparent Declination
Unknown
Sunlit
N/A
Visualization observer readout
Local Sidereal Time
04:38:33
Azimuth
Unknown
Elevation
Unknown
Doppler factor
Unknown
Orbital elements
Apogee altitude
1,408.828 km
Perigee altitude
1,395.636 km
Semi-major axis
7,780.369 km
Eccentricity
0.00085
Inclination
82.6133°
RAAN
332.3851°
Arg. of periapsis
72.5848°
True anomaly
350.98469°
Mean anomaly
350.9999°
Eccentric anomaly
350.99229°
Mean motion
3.16259 °/min
Orbital period
113.83 mins
BSTAR
0.00018594
Loading maneuver chart data...
Computing Atmospheric mass density...
Loading historical data...
Loading historical data...
Loading historical data...
Loading historical data...
Loading historical data...
Loading historical data...
Loading historical data...

Documentation

Showing up to 5 results
|